Date String (YYYY-MM-DD hh:mm:ss) UTC,Instrument flags,Ambient pressure (hPa),Sample flow (lpm),Bypass flow (lpm),Sample temperature (°C),Ambient temperature (°C),ASC tube jacket temperature (°C),LED temperature (°C),Box temperature (°C),Sample RH (%),Span deviation,Mass concentration (μg/m³),Mass concentration (μg/m³),Mass concentration (μg/m³)
DateTimeUTC,F1_M11,P_M11,Q1_M11,Q2_M11,T1_M11,T2_M11,T3_M11,T4_M11,T5_M11,U1_M11,ZSPAN_M11,X0_M11,X2_M11,X1_M11
2022-02-06 23:00:00,,0832.7,4.99,0.00,22.5,21.9,00.0,31.6,24.2,08.7,0000.0,0003.70,0001.85,0001.43
2022-02-06 23:01:00,,0832.7,5.01,0.00,22.5,21.9,00.0,31.6,24.2,08.8,0000.0,0003.56,0001.80,0001.43
2022-02-06 23:02:00,,0832.8,4.99,0.00,22.5,21.9,00.0,31.6,24.2,08.8,0000.0,0003.56,0001.77,0001.43
2022-02-06 23:03:00,,0832.8,5.01,0.00,22.5,21.9,00.0,31.6,24.2,08.8,0000.0,0003.63,0001.79,0001.43
2022-02-06 23:04:00,,0832.7,4.99,0.00,22.5,21.9,00.0,31.6,24.2,08.8,0000.0,0003.86,0001.77,0001.43
2022-02-06 23:05:00,,0832.7,5.00,0.00,22.5,21.8,00.0,31.6,24.2,09.0,0000.0,0005.19,0001.78,0001.43
2022-02-06 23:06:00,,0832.8,5.01,0.00,22.5,21.8,00.0,31.6,24.2,09.0,0000.0,0005.21,0001.79,0001.42
2022-02-06 23:07:00,,0832.8,4.98,0.00,22.5,21.8,00.0,31.6,24.1,08.9,0000.0,0004.42,0001.77,0001.42
2022-02-06 23:08:00,,0832.7,5.01,0.00,22.4,21.8,00.0,31.6,24.1,08.9,0000.0,0004.25,0001.74,0001.42
2022-02-06 23:09:00,,0832.7,4.99,0.00,22.4,21.8,00.0,31.5,24.1,09.2,0000.0,0004.21,0001.74,0001.41
2022-02-06 23:10:00,,0832.7,5.00,0.00,22.4,21.8,00.0,31.5,24.1,09.3,0000.0,0004.18,0001.75,0001.40
2022-02-06 23:11:00,,0832.7,4.99,0.00,22.4,21.8,00.0,31.5,24.1,09.4,0000.0,0004.28,0001.77,0001.41
2022-02-06 23:12:00,,0832.7,4.99,0.00,22.4,21.8,00.0,31.5,24.1,09.2,0000.0,0004.32,0001.78,0001.41
2022-02-06 23:13:00,,0832.7,5.01,0.00,22.4,21.8,00.0,31.5,24.1,09.0,0000.0,0004.46,0001.80,0001.41
2022-02-06 23:14:00,,0832.7,4.99,0.00,22.4,21.8,00.0,31.5,24.2,09.0,0000.0,0004.39,0001.78,0001.41
2022-02-06 23:15:00,,0832.7,5.01,0.00,22.4,21.8,00.0,31.5,24.2,08.7,0000.0,0004.39,0001.79,0001.42
2022-02-06 23:16:00,,0832.7,4.99,0.00,22.4,21.8,00.0,31.5,24.1,08.7,0000.0,0003.38,0001.80,0001.41
2022-02-06 23:17:00,,0832.7,5.00,0.00,22.4,21.8,00.0,31.5,24.1,08.5,0000.0,0003.08,0001.79,0001.42
2022-02-06 23:18:00,,0832.7,4.99,0.00,22.4,21.8,00.0,31.5,24.1,08.5,0000.0,0003.14,0001.78,0001.41
2022-02-06 23:19:00,,0832.7,4.99,0.00,22.4,21.8,00.0,31.5,24.1,08.6,0000.0,0003.18,0001.79,0001.40
2022-02-06 23:20:00,,0832.7,5.01,0.00,22.4,21.8,00.0,31.5,24.1,08.7,0000.0,0003.19,0001.78,0001.40
2022-02-06 23:21:00,,0832.6,4.99,0.00,22.4,21.8,00.0,31.5,24.1,08.8,0000.0,0003.11,0001.75,0001.40
2022-02-06 23:22:00,,0832.6,5.01,0.00,22.4,21.8,00.0,31.5,24.1,08.7,0000.0,0002.97,0001.71,0001.40
2022-02-06 23:23:00,,0832.5,5.00,0.00,22.4,21.7,00.0,31.5,24.1,08.5,0000.0,0002.94,0001.72,0001.39
2022-02-06 23:24:00,,0832.5,4.99,0.00,22.4,21.7,00.0,31.5,24.1,08.5,0000.0,0002.69,0001.68,0001.39
2022-02-06 23:25:00,,0832.5,5.01,0.00,22.4,21.7,00.0,31.4,24.1,08.6,0000.0,0002.67,0001.66,0001.38
2022-02-06 23:26:00,,0832.5,5.00,0.00,22.4,21.8,00.0,31.4,24.1,08.5,0000.0,0002.64,0001.65,0001.37
2022-02-06 23:27:00,,0832.5,4.99,0.00,22.4,21.8,00.0,31.4,24.1,08.7,0000.0,0002.52,0001.63,0001.37
2022-02-06 23:28:00,,0832.5,5.02,0.00,22.4,21.7,00.0,31.4,24.1,08.9,0000.0,0002.56,0001.66,0001.37
2022-02-06 23:29:00,,0832.5,4.99,0.00,22.4,21.7,00.0,31.4,24.1,09.1,0000.0,0002.57,0001.69,0001.38
2022-02-06 23:30:00,,0832.5,5.00,0.00,22.4,21.7,00.0,31.4,24.1,09.1,0000.0,0002.74,0001.72,0001.38
2022-02-06 23:31:00,,0832.5,5.01,0.00,22.4,21.7,00.0,31.4,24.1,09.2,0000.0,0003.30,0001.72,0001.38
2022-02-06 23:32:00,,0832.5,4.99,0.00,22.4,21.7,00.0,31.4,24.1,09.3,0000.0,0003.74,0001.73,0001.39
2022-02-06 23:33:00,,0832.5,5.01,0.00,22.4,21.7,00.0,31.4,24.1,08.9,0000.0,0003.75,0001.74,0001.40
2022-02-06 23:34:00,,0832.5,4.99,0.00,22.4,21.7,00.0,31.4,24.1,09.0,0000.0,0003.74,0001.74,0001.41
2022-02-06 23:35:00,,0832.5,5.01,0.00,22.3,21.7,00.0,31.4,24.1,08.9,0000.0,0003.82,0001.75,0001.41
2022-02-06 23:36:00,,0832.5,4.98,0.00,22.3,21.7,00.0,31.4,24.1,08.9,0000.0,0003.80,0001.77,0001.44
2022-02-06 23:37:00,,0832.5,4.99,0.00,22.3,21.7,00.0,31.4,24.0,08.8,0000.0,0003.72,0001.78,0001.46
2022-02-06 23:38:00,,0832.5,5.01,0.00,22.3,21.6,00.0,31.4,24.0,08.8,0000.0,0003.83,0001.84,0001.47
2022-02-06 23:39:00,,0832.5,4.99,0.00,22.3,21.6,00.0,31.4,24.0,08.8,0000.0,0003.80,0001.83,0001.49
2022-02-06 23:40:00,,0832.5,5.01,0.00,22.3,21.6,00.0,31.4,24.0,08.9,0000.0,0003.72,0001.80,0001.50
2022-02-06 23:41:00,,0832.5,4.99,0.00,22.3,21.6,00.0,31.4,24.0,08.8,0000.0,0004.01,0001.76,0001.50
2022-02-06 23:42:00,,0832.5,4.98,0.00,22.3,21.5,00.0,31.3,23.9,08.9,0000.0,0003.71,0001.74,0001.52
2022-02-06 23:43:00,,0832.5,5.02,0.00,22.3,21.5,00.0,31.3,23.9,09.0,0000.0,0003.24,0001.74,0001.52
2022-02-06 23:44:00,,0832.5,4.99,0.00,22.2,21.5,00.0,31.3,23.9,09.1,0000.0,0003.51,0001.76,0001.54
2022-02-06 23:45:00,,0832.5,5.01,0.00,22.2,21.5,00.0,31.3,23.9,09.2,0000.0,0003.70,0001.77,0001.53
2022-02-06 23:46:00,,0832.5,4.99,0.00,22.2,21.5,00.0,31.3,23.9,09.2,0000.0,0003.66,0001.78,0001.53
2022-02-06 23:47:00,,0832.4,5.01,0.00,22.2,21.5,00.0,31.3,23.9,09.2,0000.0,0003.67,0001.80,0001.53
2022-02-06 23:48:00,,0832.5,4.99,0.00,22.2,21.5,00.0,31.3,23.9,09.2,0000.0,0003.72,0001.82,0001.53
2022-02-06 23:49:00,,0832.5,5.00,0.00,22.2,21.5,00.0,31.3,24.0,09.2,0000.0,0003.70,0001.80,0001.53
2022-02-06 23:50:00,,0832.5,5.01,0.00,22.2,21.5,00.0,31.3,23.9,09.1,0000.0,0003.80,0001.84,0001.54
2022-02-06 23:51:00,,0832.5,4.99,0.00,22.2,21.5,00.0,31.3,23.9,09.1,0000.0,0003.86,0001.87,0001.56
2022-02-06 23:52:00,,0832.5,5.00,0.00,22.2,21.4,00.0,31.3,23.9,09.1,0000.0,0003.61,0001.93,0001.59
2022-02-06 23:53:00,,0832.5,5.00,0.00,22.2,21.4,00.0,31.3,23.8,09.1,0000.0,0003.93,0002.01,0001.61
2022-02-06 23:54:00,,0832.5,5.02,0.00,22.1,21.4,00.0,31.2,23.8,09.2,0000.0,0003.96,0002.04,0001.64
2022-02-06 23:55:00,,0832.5,4.99,0.00,22.1,21.3,00.0,31.2,23.8,09.2,0000.0,0003.87,0002.08,0001.66
2022-02-06 23:56:00,,0832.4,5.01,0.00,22.1,21.3,00.0,31.2,23.8,09.2,0000.0,0003.77,0002.15,0001.69
2022-02-06 23:57:00,,0832.4,4.99,0.00,22.1,21.3,00.0,31.2,23.8,09.1,0000.0,0004.04,0002.20,0001.73
2022-02-06 23:58:00,,0832.4,5.02,0.00,22.1,21.3,00.0,31.2,23.8,09.2,0000.0,0004.22,0002.20,0001.75
2022-02-06 23:59:00,,0832.3,4.99,0.00,22.1,21.3,00.0,31.2,23.8,09.3,0000.0,0004.25,0002.22,0001.76
